Tracking 21473 objects as of 20-Sep-2020
HD Live streaming from Space Station
objects crossing your sky now

COSMOS 2407

Track COSMOS 2407 now!
10-day predictions
COSMOS 2407 is classified as:


NORAD ID: 28380
Int'l Code: 2004-028A
Perigee: 955.8 km
Apogee: 1,014.2 km
Inclination: 83.0 °
Period: 104.6 minutes
Semi major axis: 7355 km
RCS: 1.9044 m2 (large)
Launch date: July 22, 2004
Source: Commonwealth of Independent States (former USSR) (CIS)
Launch site: PLESETSK MISSILE AND SPACE COMPLEX (PKMTR)

Normally part of a six-satellite constellation.
aabbcc
Your satellite tracking list
Your tracking list is empty




NASA's NSSDC Master Catalog

Two Line Element Set (TLE):
1 28380U 04028A   20263.58201665  .00000002  00000-0 -13565-4 0  9998
2 28380  82.9634 187.1437 0039708 357.5945   2.5015 13.76080661811710
Source of the keplerian elements: AFSPC